Location: Anjeux
(47.8815°N, 6.2076°E)
Time: 12:01:38
(UTC+00:00)

AO-27 - Pass Details

Date: 10 December 2021
Orbit: 784 x 798 km, 98.9° (Epoch: 24 January)

Event Time Altitude Azimuth Distance (km) Brightness Sun altitude
Rises 16:36:58 0° 122° (ESE) 3,295 10.6 -8.8°
Reaches altitude 10° 16:39:44 10° 108° (ESE) 2,370 9.7 -9.2°
Maximum altitude 16:43:42 22° 59° (ENE) 1,675 8.8 -9.8°
Drops below altitude 10° 16:47:40 10° 10° (N) 2,382 9.8 -10.4°
Sets 16:50:27 0° 356° (N) 3,317 10.7 -10.9°
